Regional Weather Roundup
Issued by NWS Cleveland, OH

Home | Current Version | Previous Version | Graphics & Text | Print | Product List | Glossary On
Versions: 1 2 3 4 5 6 7 8 9 10 11 12 13 14 15 16 17 18 19 20 21 22 23 24 25 26 27 28 29 30 31 32 33 34 35 36 37 38 39 40 41 42 43 44 45 46 47 48 49 50
000
ASUS41 KCLE 261002
RWRCLE
OHIO REGIONAL WEATHER ROUNDUP
NATIONAL WEATHER SERVICE CLEVELAND, OH
600 AM EDT SUN APR 26 2015

NOTE: "FAIR" INDICATES FEW OR NO CLOUDS BELOW 12,000 FEET WITH NO
SIGNIFICANT WEATHER AND/OR OBSTRUCTIONS TO VISIBILITY.

OHZ001>008-015>018-024>027-034-035-043-044-261100-
   NORTHWEST OHIO

CITY           SKY/WX    TMP DP  RH WIND       PRES   REMARKS
DEFIANCE       CLEAR     36  27  69 N9        29.86R
FINDLAY        CLEAR     38  31  76 N12       29.81R
TOLEDO EXPRESS CLEAR     34  26  72 N5        29.85R WCI  30
TOLEDO EXEC    CLEAR     40  30  67 N9        29.85R
LIMA           CLEAR     36  31  82 N8        29.81R
$$

OHZ009>014-019>023-028>033-038-089-261100-
   NORTHEAST OHIO

CITY           SKY/WX    TMP DP  RH WIND       PRES   REMARKS
CLE-HOPKINS    CLEAR     36  32  85 N6        29.81R
CLE-LAKEFRONT  CLEAR     40  32  73 NE8       29.79R
CUY CO. ARPT   NOT AVBL
LORAIN-ELYRIA  CLEAR     35  32  88 N6        29.80R
ASHTABULA      CLEAR     32  27  81 CALM      29.79R
AKRON-CANTON   CLEAR     38  26  62 N13       29.74R
WOOSTER        CLEAR     37  27  67 N10       29.76R
MANSFIELD      CLEAR     34  29  82 N9        29.77R WCI  27
YOUNGSTOWN     PTCLDY    34  26  72 NE9       29.74R WCI  27
$$

OHZ042-051>053-060>062-070>072-077>081-261100-
  SOUTHWEST OHIO

CITY           SKY/WX    TMP DP  RH WIND       PRES   REMARKS
CINC-COVINGTON NOT AVBL
CINC-LUNKEN    CLOUDY    42  32  67 N7        29.76S
HAMILTON       CLOUDY    43  32  65 N9        29.77R
DAYTON         CLOUDY    41  33  73 N12       29.78R
WRIGHT-PAT AFB CLOUDY    42  32  67 N8        29.77R
DAYTON GENERAL CLOUDY    41  31  67 N12       29.75R
WILMINGTON     CLOUDY    39  31  72 N10       29.74R
$$

OHZ036-037-039>041-045>050-054>059-063>069-073>076-082>088-261100-
  CENTRAL AND SOUTHEAST OHIO

CITY           SKY/WX    TMP DP  RH WIND       PRES   REMARKS
COLUMBUS       MOCLDY    40  31  70 N7        29.74R
OSU AIRPORT    MOCLDY    38  31  76 N10       29.75R
BOLTON FIELD   NOT AVBL
RICKENBACK AFB NOT AVBL
NEWARK         MOCLDY    40  29  64 N8        29.72R
MARION         CLEAR     36  31  82 N13       29.78R
LANCASTER      MOCLDY    42  31  64 N9        29.72R
ZANESVILLE     MOCLDY    38  29  70 N3        29.71R
NEW PHILLY     CLEAR     42  27  55 VRB3      29.73R
$$


USA.gov is the U.S. government's official web portal to all federal, state and local government web resources and services.